[[{"header":{"parameterUnit":"m.s-1","parameterCategory":1,"la1":30.2991,"la2":30.254,"lo1":-89.0895,"lo2":-89.0444,"dy":0.0017,"dx":0.0017,"nx":28,"ny":28,"refTime":"2023-10-07T21:00:00:Z","depth":0,"parameterNumber":2,"parameterNumberName":"U-component_of_WINDS"},"data":[0,0,0,0,0,0,0,0,0,0,0,0,0,0,0,0,0,0,0,0,0,0,0,0,0,0,0,0,0,0,0,0,0,0,0,0,0,0,0,0,0,0,0,0,0,0,0,0,0,0,0,0,0,0,0,0,0,0,1.2839,1.2839,0,1.2895,1.2896,1.2897,1.2906,1.2906,1.2905,1.2905,1.2964,1.2966,1.2968,0,0,0,0,0,0,0,0,0,0,0,0,0,1.274,1.2741,1.2838,1.2839,1.284,1.2895,1.2896,1.2897,1.2906,1.2906,1.2905,1.2904,1.2964,1.2966,1.2969,0,0,0,0,0,0,0,0,0,0,0,0,0,1.2788,1.2742,1.2838,1.2851,1.2853,1.2895,1.2896,1.2897,1.2906,1.2906,1.2905,1.2904,1.2963,1.2966,1.2969,1.3003,0,0,1.2978,1.298,0,0,0,0,0,0,0,0,1.2785,1.2792,1.2849,1.285,1.2852,1.2893,1.2883,1.2932,1.2906,1.2886,1.2905,1.2904,1.2941,1.2946,1.2958,1.3005,1.3008,1.2979,1.298,1.2982,1.2983,0,0,0,0,0,0,0,1.2782,1.2789,1.2861,1.2849,1.2852,1.2855,1.2861,1.2892,1.2917,1.2888,1.2889,1.2895,1.2942,1.2955,1.296,1.3009,1.2978,1.2981,1.2983,1.2984,1.3087,1.3088,0,0,0,0,0,0,1.2776,1.2786,1.2859,1.2863,1.2816,1.2857,1.2864,1.2881,1.2917,1.2922,1.2896,1.2895,1.295,1.2956,1.2962,1.3004,1.2982,1.2985,1.2986,1.3086,1.3087,1.3088,0,0,0,0,0,0,1.2774,1.2782,1.2857,1.2825,1.2835,1.2859,1.2878,1.2882,1.2895,1.2923,1.2927,1.2905,1.295,1.2958,1.2992,1.3006,1.2986,1.2989,1.3085,1.3086,1.3087,1.3088,0,0,0,0,0,0,1.2771,1.2782,1.2794,1.2825,1.2836,1.2886,1.2879,1.2884,1.29,1.2901,1.2932,1.2937,1.295,1.2988,1.2995,1.301,1.2991,1.3084,1.3086,1.3087,1.3087,1.3089,1.3091,0,0,0,0,0,1.2767,1.2793,1.2795,1.2804,1.2853,1.2887,1.2893,1.2907,1.2901,1.2915,1.2932,1.2936,1.3003,1.2991,1.3,1.3016,1.3083,1.3085,1.3087,1.3086,1.3089,1.3091,0,0,0,0,0,0,1.2763,1.2797,1.28,1.2835,1.2858,1.2888,1.2905,1.291,1.2935,1.2934,1.2951,1.2958,1.2992,1.3008,1.2993,1.305,1.3043,1.3047,1.3039,1.3042,1.3044,1.304,1.2994,0,0,0,0,0,1.2766,1.2791,1.2819,1.2848,1.2859,1.288,1.2896,1.2905,1.2929,1.2939,1.2959,1.2983,1.3009,1.3027,1.3053,1.3089,1.3096,1.3104,1.3106,1.3108,1.3111,1.3132,1.3136,1.3094,1.3094,1.3094,0,0,1.2773,1.2795,1.2809,1.2847,1.2866,1.2891,1.2888,1.2915,1.2934,1.2943,1.2977,1.2992,1.302,1.3056,1.3073,1.307,1.3124,1.3111,1.3112,1.3114,1.3134,1.3138,1.3141,1.3096,1.3096,1.3095,0,0,1.2799,1.2817,1.2843,1.2862,1.289,1.2904,1.291,1.294,1.295,1.2984,1.2991,1.3015,1.306,1.308,1.3096,1.3128,1.3133,1.3137,1.3148,1.3167,1.3171,1.3174,1.3185,1.3189,1.314,1.314,1.314,0,1.2804,1.2842,1.2856,1.2883,1.29,1.2908,1.2935,1.2952,1.2988,1.2999,1.2995,1.3053,1.3072,1.3112,1.312,1.3133,1.3141,1.3133,1.3169,1.3172,1.3175,1.3186,1.3191,1.314,1.314,1.314,1.314,0,1.2847,1.2873,1.2891,1.2924,1.2943,1.2969,1.2988,1.3006,1.3013,1.3028,1.3063,1.3086,1.3117,1.3127,1.3135,1.3169,1.3166,1.3165,1.3158,1.3179,1.319,1.3194,1.314,1.314,1.314,1.314,0,0,1.287,1.2912,1.2918,1.2933,1.2965,1.2986,1.3013,1.3043,1.3057,1.3082,1.3105,1.3143,1.3143,1.3161,1.3171,1.3188,1.3213,1.3185,1.3186,1.3189,1.3251,1.3252,1.3256,1.3216,1.3217,1.3217,1.3249,0,1.29,1.2948,1.2962,1.3002,1.3027,1.3036,1.3059,1.3082,1.3096,1.3119,1.3136,1.3162,1.316,1.317,1.3188,1.3206,1.3225,1.3204,1.3238,1.3239,1.323,1.3262,1.3263,1.3291,1.3253,1.3254,1.3255,0,1.294,1.2964,1.3007,1.3036,1.3047,1.3068,1.3096,1.3118,1.3144,1.3153,1.3173,1.3182,1.3211,1.3202,1.3242,1.3228,1.3242,1.3253,1.3255,1.3258,1.3248,1.3266,1.3301,1.3305,1.3262,1.3261,1.3261,0,1.2953,1.2997,1.3028,1.3041,1.3075,1.309,1.3105,1.313,1.3147,1.3172,1.3183,1.3211,1.3227,1.3249,1.3265,1.3257,1.3304,1.3296,1.3312,1.3312,1.3322,1.3321,1.3359,1.3331,1.3331,1.3331,1.3331,0,1.2983,1.3009,1.3034,1.3054,1.3083,1.3099,1.3128,1.3144,1.3166,1.3188,1.3198,1.3219,1.3239,1.3263,1.3276,1.3307,1.3315,1.3323,1.3326,1.3322,1.3321,1.3332,1.333,1.3333,1.3332,1.3332,1.3332,0,1.3003,1.302,1.3055,1.3085,1.3093,1.3114,1.3139,1.3158,1.3173,1.3202,1.3209,1.3233,1.3262,1.328,1.3316,1.3325,1.3359,1.3362,1.3351,1.3352,1.3367,1.3365,1.3413,1.342,1.3388,1.3389,1.3389,0,1.3021,1.3041,1.3073,1.3089,1.3104,1.3129,1.3147,1.3163,1.3181,1.3212,1.3228,1.3257,1.3281,1.3327,1.3347,1.3375,1.3378,1.3393,1.3383,1.3378,1.3378,1.3377,1.3379,1.3395,1.3395,1.3395,1.3396,0,1.3052,1.306,1.3084,1.3112,1.3132,1.3155,1.3178,1.319,1.3211,1.323,1.326,1.3278,1.3316,1.3345,1.3375,1.3391,1.3397,1.3399,1.3404,1.34,1.3392,1.3396,1.3355,1.3397,1.3397,1.3397,1.3397,1.3397,1.3071,1.3089,1.3115,1.3142,1.3161,1.3182,1.3201,1.3218,1.3243,1.3274,1.3283,1.3314,1.3339,1.338,1.3396,1.3421,1.3419,1.3426,1.3428,1.343,1.343,1.3388,1.3426,1.3426,1.3426,1.3426,1.3426,0,1.3102,1.3119,1.3144,1.3175,1.3196,1.32,1.3225,1.3243,1.327,1.3293,1.3316,1.335,1.3378,1.3401,1.343,1.3445,1.3449,1.3452,1.3451,1.3455,1.343,1.3422,1.3449,1.3449,1.3449,1.3449,1.3449,1.3449,1.3121,1.3152,1.3163,1.3204,1.322,1.325,1.3264,1.3284,1.3302,1.3339,1.3363,1.3377,1.34,1.3431,1.3457,1.3463,1.3473,1.3476,1.3483,1.3459,1.3456,1.3454,1.3447,1.3478,1.3478,1.3505,1.3506,1.3506]},{"header":{"parameterUnit":"m.s-1","parameterCategory":1,"la1":30.2991,"la2":30.254,"lo1":-89.0895,"lo2":-89.0444,"dy":0.0017,"dx":0.0017,"nx":28,"ny":28,"refTime":"2023-10-07T21:00:00:Z","depth":0,"parameterNumber":3,"parameterNumberName":"V-component_of_WINDS"},"data":[0,0,0,0,0,0,0,0,0,0,0,0,0,0,0,0,0,0,0,0,0,0,0,0,0,0,0,0,0,0,0,0,0,0,0,0,0,0,0,0,0,0,0,0,0,0,0,0,0,0,0,0,0,0,0,0,0,0,2.412,2.412,0,2.4106,2.4106,2.4106,2.4133,2.4134,2.4135,2.4136,2.4117,2.4116,2.4114,0,0,0,0,0,0,0,0,0,0,0,0,0,2.4164,2.4163,2.412,2.412,2.412,2.4106,2.4106,2.4106,2.4133,2.4134,2.4135,2.4136,2.4117,2.4116,2.4114,0,0,0,0,0,0,0,0,0,0,0,0,0,2.4147,2.4163,2.412,2.4131,2.4132,2.4106,2.4106,2.4106,2.4133,2.4134,2.4135,2.4136,2.4118,2.4116,2.4114,2.4075,0,0,2.4108,2.4107,0,0,0,0,0,0,0,0,2.4148,2.4145,2.413,2.4131,2.4132,2.4123,2.4115,2.4095,2.4132,2.4132,2.4136,2.4137,2.4117,2.4116,2.411,2.4074,2.4073,2.4108,2.4106,2.4106,2.4105,0,0,0,0,0,0,0,2.4149,2.4146,2.4114,2.413,2.4131,2.4136,2.4135,2.4111,2.4117,2.4132,2.4134,2.4133,2.4118,2.4112,2.411,2.4073,2.4108,2.4106,2.4105,2.4104,2.4003,2.4001,0,0,0,0,0,0,2.415,2.4147,2.4115,2.4114,2.4144,2.4134,2.4133,2.4124,2.4118,2.4118,2.4131,2.4134,2.4114,2.4112,2.4109,2.4062,2.4106,2.4104,2.4102,2.4004,2.4002,2.4001,0,0,0,0,0,0,2.4151,2.4147,2.4115,2.4131,2.4128,2.4132,2.4122,2.4123,2.4117,2.4117,2.4118,2.4124,2.4115,2.4112,2.4083,2.4062,2.4103,2.4101,2.4006,2.4003,2.4001,2.3968,0,0,0,0,0,0,2.4152,2.4147,2.4133,2.4131,2.4127,2.4091,2.4121,2.4122,2.4114,2.4117,2.411,2.4111,2.4116,2.4086,2.4081,2.406,2.4099,2.4008,2.4005,2.4002,2.3971,2.3965,2.3959,0,0,0,0,0,2.4153,2.4123,2.4132,2.4128,2.411,2.409,2.4087,2.4096,2.4112,2.4098,2.4098,2.4111,2.4065,2.4083,2.4078,2.4055,2.4009,2.4006,2.4002,2.3973,2.3966,2.396,0,0,0,0,0,0,2.4121,2.4123,2.4133,2.4102,2.4096,2.4094,2.4076,2.4088,2.4076,2.4079,2.4088,2.4087,2.4055,2.4053,2.4072,2.4016,2.404,2.4035,2.4019,2.4012,2.4007,2.4007,2.4098,0,0,0,0,0,2.4111,2.4096,2.4098,2.407,2.4067,2.4072,2.4063,2.4071,2.4064,2.4061,2.4059,2.4051,2.4034,2.4023,2.4008,2.3971,2.3969,2.3953,2.3947,2.3942,2.3938,2.3917,2.3909,2.399,2.399,2.399,0,0,2.4088,2.4088,2.4077,2.4063,2.406,2.4042,2.4069,2.405,2.4037,2.4058,2.4031,2.4029,2.402,2.3986,2.3971,2.3983,2.3915,2.3938,2.3934,2.3932,2.3912,2.3905,2.3898,2.3987,2.3988,2.3988,0,0,2.4039,2.4038,2.4014,2.401,2.4004,2.4008,2.4002,2.3999,2.3999,2.3973,2.3988,2.3971,2.3943,2.3936,2.3929,2.3877,2.3888,2.3872,2.3841,2.382,2.3814,2.3808,2.3789,2.3782,2.3867,2.3867,2.3867,0,2.4011,2.3988,2.4,2.398,2.3972,2.3992,2.3967,2.3962,2.3951,2.3945,2.3958,2.3923,2.3919,2.3883,2.3871,2.3865,2.3857,2.3872,2.3814,2.3809,2.3804,2.3785,2.3778,2.3865,2.3865,2.3866,2.3866,0,2.3954,2.3937,2.3918,2.3909,2.3899,2.3877,2.3884,2.3873,2.3881,2.3883,2.3854,2.385,2.3834,2.3826,2.3833,2.3792,2.3799,2.3813,2.3836,2.3794,2.3776,2.3769,2.3862,2.3863,2.3864,2.3864,0,0,2.3883,2.3881,2.3873,2.3869,2.3864,2.3851,2.3829,2.3815,2.3804,2.3796,2.3776,2.3753,2.3766,2.3758,2.3764,2.3746,2.3703,2.3762,2.3762,2.3751,2.3655,2.3644,2.3635,2.3711,2.371,2.3709,2.3656,0,2.3833,2.3796,2.3806,2.3769,2.3753,2.3772,2.3752,2.3746,2.3747,2.3732,2.3733,2.3715,2.3735,2.373,2.3713,2.3712,2.3684,2.3716,2.3691,2.369,2.3692,2.3626,2.3614,2.3564,2.3649,2.3648,2.3647,0,2.377,2.376,2.3722,2.372,2.3713,2.3696,2.3683,2.367,2.3663,2.3665,2.3656,2.3666,2.3642,2.3667,2.3633,2.3655,2.3645,2.3643,2.3641,2.3638,2.3665,2.362,2.3549,2.3541,2.3637,2.3637,2.3638,0,2.372,2.3698,2.3672,2.3668,2.3665,2.3652,2.365,2.3645,2.3635,2.3624,2.3618,2.3604,2.3595,2.3583,2.3588,2.3606,2.3553,2.3578,2.3552,2.3552,2.354,2.354,2.3464,2.3535,2.3535,2.3536,2.3536,0,2.3663,2.3638,2.365,2.3634,2.3606,2.3618,2.359,2.3589,2.3584,2.3567,2.3582,2.3565,2.3574,2.3557,2.3561,2.3532,2.3528,2.3528,2.3529,2.3526,2.3526,2.3519,2.3522,2.3534,2.3534,2.3534,2.3535,0,2.3602,2.361,2.3582,2.3582,2.3581,2.3561,2.356,2.3544,2.3547,2.3525,2.352,2.3524,2.3505,2.3509,2.3488,2.3491,2.3454,2.346,2.3457,2.3458,2.3431,2.3433,2.3347,2.3336,2.3415,2.3414,2.3414,0,2.3564,2.3546,2.3544,2.3535,2.3532,2.3516,2.3508,2.3518,2.3508,2.3498,2.3483,2.3466,2.3453,2.3422,2.3421,2.3405,2.341,2.3381,2.3407,2.3404,2.3408,2.3408,2.3406,2.3375,2.3374,2.3373,2.3372,0,2.3496,2.3501,2.3489,2.3477,2.3467,2.3458,2.345,2.3441,2.345,2.3438,2.342,2.341,2.3389,2.3371,2.3356,2.3352,2.3363,2.3364,2.3357,2.3353,2.3352,2.3351,2.3441,2.3366,2.3367,2.3367,2.3367,2.3368,2.3445,2.343,2.3426,2.3411,2.3407,2.34,2.3385,2.3386,2.3372,2.3357,2.3363,2.3342,2.3335,2.3316,2.331,2.3293,2.3303,2.3293,2.3291,2.3288,2.3284,2.3356,2.329,2.329,2.329,2.329,2.3291,0,2.3377,2.3376,2.3362,2.3352,2.334,2.3354,2.3346,2.3335,2.3316,2.331,2.3297,2.3275,2.3258,2.3257,2.324,2.3226,2.3231,2.3221,2.3222,2.322,2.3276,2.3283,2.3218,2.3218,2.3218,2.3218,2.3218,2.3218,2.334,2.3314,2.3318,2.329,2.3289,2.3269,2.3263,2.3256,2.3251,2.3227,2.3213,2.3213,2.3208,2.3191,2.3175,2.3175,2.3168,2.3156,2.3157,2.3209,2.3216,2.3223,2.323,2.3155,2.3154,2.3103,2.3103,2.3102]}]]